Find EOS SAT-1

NORAD ID: 55053 Int'l Des: 2023-001 Owner: EOSDA Country: US operational
LEOCIRCULARRETROGRADESSO

当前视图

正在加载3D地球...

关于 EOS SAT-1

正在加载描述...

即将过境

Passes for default location (London). Set your location on the main map for personalized predictions.

高度历史

Loading altitude history...

两行轨道根数

1 55053U 23001AW 26150.07227498 .00007147 00000-0 22372-3 0 9995
2 55053 97.3253 210.8358 0009731 171.7059 188.4346 15.33373051189144
Epoch: May 30, 2026 • Age: 11 hours

当前状态

高度 478.7 km
速度 7.63 km/s
星下点 65.79°N, 111.9°E
发射日期 Jan 3, 2023
运行时间 3.4 years
类型 other

技术详情

分类 Payload
质量 178.00 kg
干质量 178.00 kg
总质量 178.00 kg
长度 0.50 m
直径 0.50 m
跨度 0.50 m
形状 Pent cyl + 2 pan
制造商 DRFLY
平台类型 EOS-SAT
阶段状态 In Orbit
所有者/国家 EOSDA/US

Most Searched